Regional Weather Roundup
Issued by NWS

Home | Current Version | Previous Version | Graphics & Text | Print | Product List | Glossary On
Versions: 1 2 3 4 5 6 7 8 9 10 11 12 13 14 15 16 17 18 19 20 21 22 23 24 25 26 27 28 29 30 31 32 33 34 35 36 37 38 39 40 41 42 43 44 45 46 47 48 49 50
000
ASUS45 KTFX 261310
RWRMT
MONTANA REGIONAL WEATHER ROUNDUP
NATIONAL WEATHER SERVICE GREAT FALLS MT
700 AM MDT TUE SEP 26 2017

NOTE: "FAIR" INDICATES FEW OR NO CLOUDS BELOW 12000 FEET WITH NO
SIGNIFICANT WEATHER AND/OR OBSTRUCTIONS TO VISIBILITY.

MTZ001>007-043-261400-
WEST OF THE DIVIDE

CITY           SKY/WX    TMP DP  RH WIND       PRES   REMARKS
KALISPELL      FOG       37  37 100 CALM      30.16R VSB 1/4
MISSOULA       CLOUDY    45  44  97 CALM      30.18R
BUTTE          CLOUDY    40  39  97 SE3       30.19R
MULLAN PASS    CLOUDY    41  37  86 NW5       30.20R
ANACONDA         N/A     43  39  87 CALM      30.17S
DEER LODGE       N/A     45  43  93 CALM      30.18S
EUREKA           N/A     41  39  93 MISG      30.16R
HAMILTON         N/A     48  41  76 S6        30.17R
LIBBY            N/A     37  37 100 CALM      30.15R VSB 3/4
PLAINS           N/A     47  42  82 CALM      30.15R
RONAN            N/A     50  47  89 SE1       30.19R
THOMPSON FALLS   N/A     49  46  89 CALM      30.19R
$$

MTZ008-052>055-261400-
SOUTHWEST MONTANA

CITY           SKY/WX    TMP DP  RH WIND       PRES   REMARKS
BOZEMAN        CLOUDY    47  42  83 CALM      30.17R
DILLON         CLOUDY    43  37  79 S6        30.18R
W YELLOWSTONE  CLOUDY    36  32  87 CALM      30.22R
ENNIS          CLOUDY    43  37  81 CALM      30.24R
THREE FORKS      N/A     45  42  89 CALM      30.14R
TWIN BRIDGES     N/A     41  36  82 CALM      30.15R
$$

MTZ009-010-012-014-046-048-049-054-261400-
EAST SLOPES AND CENTRAL MONTANA

CITY           SKY/WX    TMP DP  RH WIND       PRES   REMARKS
CUT BANK       CLOUDY    44  40  85 W10       30.08R
GREAT FALLS    CLOUDY    48  39  71 SW12      30.09S
MALMSTROM AFB  CLOUDY    49  41  75 SW9       30.09S
HELENA         PTCLDY    45  43  93 S3        30.14R
BOWMANS CRNR     N/A     41  38  88 S9        30.10R
CHOTEAU          N/A     45  39  81 SW8       30.11R
FAIRFIELD      MOCLDY    45  38  77 S6        30.09R
POWER          MOCLDY    42  38  85 SW3       30.08R
RAYNESFORD     MOCLDY    48  39  70 E8        30.11R
ULM            MOCLDY    45  40  82 S7        30.10S
$$

MTZ011-013-016-021-045-047-050-051-261400-
NORTH CENTRAL MONTANA

CITY           SKY/WX    TMP DP  RH WIND       PRES   REMARKS
HAVRE          CLOUDY    50  40  68 SW10      30.04R
LEWISTOWN      CLOUDY    42  35  76 CALM      30.10R
N BAR RANCH    CLOUDY    43  34  70 NW6       30.12S
CHINOOK          N/A     43  41  93 CALM      30.04S
DENTON           N/A     46  39  77 S7        30.05R
GEYSER         CLOUDY    48  40  73 W12       30.09S
JUDITH GAP     MOCLDY    42  35  76 SW7       30.11R
WINIFRED       CLOUDY    49  38  65 W6        30.08R
$$

MTZ017>020-022>027-061-062-261400-
NORTHEAST MONTANA

CITY           SKY/WX    TMP DP  RH WIND       PRES   REMARKS
GLASGOW        CLEAR     37  36  96 E10       30.09R WCI  30
JORDAN           N/A     31  27  85 CALM      30.09R
SIDNEY           N/A    N/A N/A N/A MISG        N/A
WOLF POINT     FOG       39  37  92 CALM      30.11R VSB 1/4
MALTA          PTCLDY    37  36  93 NE6       30.07R
PLENTYWOOD       N/A     45  45 100 CALM      30.10S
POPLAR           N/A     45  43  93 CALM      30.11R
SCOBEY           N/A     32  27  82 CALM      30.08R VSB 0
$$

MTZ028>42-056>058-261400-
SOUTHCENTRAL AND SOUTHEAST MONTANA

CITY           SKY/WX    TMP DP  RH WIND       PRES   REMARKS
BAKER          CLOUDY    43  40  89 CALM      30.09R
BILLINGS       PTCLDY    47  37  68 SW15      30.11R
LIVINGSTON     CLOUDY    44  39  82 NW8       30.15R
MILES CITY     FOG       38  37  97 NW3       30.10R VSB 1/4
BIG TIMBER     CLOUDY    48  37  66 W17       30.15R
EKALAKA          N/A     40  36  86 SE2       30.05R
HARLOWTON      MOCLDY    43  39  87 MISG      30.12R
LAUREL           N/A     43  37  81 SW6       30.13R
$$

REGIONAL REPORTS...DAKOTAS

CITY           SKY/WX    TMP DP  RH WIND       PRES   REMARKS
WILLISTON      CLOUDY    47  45  93 CALM      30.10S
MINOT          CLOUDY    49  45  86 SE3       30.11R
DICKINSON      LGT RAIN  45  44  97 E5        30.07R
BEACH          CLOUDY    43  43 100 CALM      30.12R
CROSBY         CLOUDY    45  46 100 CALM      30.12R
TIOGA          CLOUDY    45  45 100 E5        30.11S FOG
WATFORD CITY   FOG       43  43 100 CALM      30.09S VSB 1/4
BISMARCK       MOCLDY    45  45 100 CALM      30.12S
GRAND FORKS    RAIN      49  49 100 NW9       30.07R
FARGO          LGT RAIN  50  50 100 N9        30.03F
BUFFALO SD       N/A     42  41  96 NW6       30.02R
RAPID CITY     CLEAR     37  36  93 SE3       30.10R
$$

REGIONAL REPORTS...WYOMING/IDAHO/WASHINGTON

CITY           SKY/WX    TMP DP  RH WIND       PRES   REMARKS
GILLETTE       CLEAR     41  35  79 W13       30.10R
SHERIDAN       CLOUDY    37  34  89 SW3       30.12R
BUFFALO WY     PTCLDY    39  27  62 W9        30.13R
CODY           CLOUDY    35  31  85 N3        30.17R
IDAHO FALLS    CLOUDY    42  35  76 S3        30.19R
SALMON         CLOUDY    44  43  96 CALM      30.21R
BOISE          CLOUDY    51  38  60 SE8       30.13R
SPOKANE        PTCLDY    49  44  83 SE7       30.15R
$$

REGIONAL REPORTS...ALBERTA

CITY           SKY/WX    TMP DP  RH WIND       PRES   REMARKS
EDMONTON       PTCLDY    52  46  82 W7        30.00R
CALGARY        MOCLDY    54  37  54 NW10      30.08R
LETHBRIDGE     MOCLDY    48  37  66 W8        30.05R
MEDICINE HAT   MOCLDY    46  36  66 SW5       30.02R
$$

REGIONAL REPORTS...SASKATCHEWAN

CITY           SKY/WX    TMP DP  RH WIND       PRES   REMARKS
SWIFT CURRENT  CLOUDY    43  36  75 S9        30.01R
REGINA         MOCLDY    36  36 100 SE8       30.09R FOG     WCI  29
SASKATOON      MOCLDY    45  37  76 S8        30.00S
$$



USA.gov is the U.S. government's official web portal to all federal, state and local government web resources and services.